Amritsar, India

3:08 AM IST on June 28, 2017 (GMT +0530)
Amritsar

Weather History for VIAR - October, 2012

Change the Weather History Date:

Thursday, October 4, 2012

  Actual Average Record
Temperature  
Mean Temperature 80 °F -  
Max Temperature 95 °F 89 °F 96 °F (2008)
Min Temperature 66 °F 68 °F 64 °F (2002)
Cooling Degree Days 16    
Growing Degree Days 30 (Base 50)    
Moisture  
Dew Point 69 °F    
Average Humidity 71    
Maximum Humidity 94    
Minimum Humidity 52    
Precipitation  
Precipitation 0.00 in - - ()
Sea Level Pressure  
Sea Level Pressure 29.69 in    
Wind  
Wind Speed 0 mph ()    
Max Wind Speed 2 mph    
Max Gust Speed -    
Visibility 2.8 miles    
Events      
Averages and records for this station are not official NWS values.
T = Trace of Precipitation, MM = Missing Value Source: Averaged Metar Reports

Daily Weather History Graph

Daily Weather History Graph

Search for Another Location

Airport or City:

Trip Planner

Search our weather history database for the weather conditions in past years. The results will help you decide how hot, cold, wet, or windy it might be!

Date:

Astronomy

Oct. 04, 2012 Rise Set
Actual Time 6:26 AM IST 6:11 PM IST
Civil Twilight 6:01 AM IST 6:35 PM IST
Nautical Twilight 5:33 AM IST 7:04 PM IST
Astronomical Twilight 5:05 AM IST 7:32 PM IST
Moon 8:43 PM IST (10/4) 10:03 AM IST (10/4)
Length of Visible Light 12h 33m
Length of Day
11h 45m
Waning Gibbous, 85% of the Moon is Illuminated
Oct 4
Waning Gibbous
Oct 8
Last Quarter
Oct 15
New
Oct 22
First Quarter
Oct 30
Full

Hourly Weather History & Observations

Time (IST) Temp. Heat Index Dew Point Humidity Pressure Visibility Wind Dir Wind Speed Gust Speed Precip Events Conditions
12:00 AM 77.0 °F - 66.2 °F 69% 29.68 in 1.9 mi Calm Calm - N/A   Haze
12:30 AM 77.0 °F - 66.2 °F 69% 29.68 in 1.9 mi Calm Calm - N/A   Haze
2:00 AM 77.0 °F - 66.2 °F 69% 29.68 in 1.9 mi Calm Calm - N/A   Haze
2:30 AM 74 °F - 63 °F 61% 29.65 in 1 mi Calm Calm - -   Haze
2:30 AM 73.4 °F - 62.6 °F 69% 29.68 in 1.9 mi Calm Calm - N/A   Haze
3:30 AM 71.6 °F - 64.4 °F 78% 29.68 in 1.9 mi Calm Calm - N/A   Haze
5:30 AM 72 °F - 64 °F 68% 29.65 in 1 mi Calm Calm - -   Haze
5:30 AM 71.6 °F - 64.4 °F 78% 29.68 in 1.9 mi Calm Calm - N/A   Haze
8:30 AM 74 °F - 64 °F 63% 29.68 in 2 mi Calm Calm - -  
8:30 AM 73.4 °F - 64.4 °F 73% 29.71 in 3.7 mi Calm Calm - N/A   Unknown
9:00 AM 73.4 °F - 64.4 °F 73% 29.71 in 3.7 mi Calm Calm - N/A   Unknown
9:30 AM 75.2 °F - 64.4 °F 69% 29.71 in 3.7 mi Calm Calm - N/A   Unknown
10:30 AM 78.8 °F - 68.0 °F 69% 29.71 in 3.7 mi Calm Calm - N/A   Unknown
11:30 AM 84.2 °F 92.3 °F 75.2 °F 74% 29.71 in 3.7 mi Variable 2.3 mph - N/A   Unknown
12:00 PM 84.2 °F 90.9 °F 73.4 °F 70% 29.71 in 3.7 mi Variable 2.3 mph - N/A   Unknown
12:30 PM 86.0 °F 93.4 °F 73.4 °F 66% 29.71 in 3.7 mi Variable 2.3 mph - N/A   Unknown
3:00 PM 93.2 °F 102.4 °F 73.4 °F 52% 29.65 in 3.7 mi Variable 2.3 mph - N/A   Unknown
4:00 PM 93.2 °F 102.4 °F 73.4 °F 52% 29.65 in 3.7 mi Variable 2.3 mph - N/A   Unknown
4:30 PM 89.6 °F 99.8 °F 75.2 °F 62% 29.65 in 3.7 mi Variable 2.3 mph - N/A   Unknown
5:30 PM 87 °F - 75 °F 60% 29.63 in 2 mi 2.3 mph - -  
8:30 PM 80.6 °F 84.6 °F 71.6 °F 74% 29.68 in 3.1 mi Calm Calm - N/A   Haze
9:00 PM 80.6 °F 85.4 °F 73.4 °F 79% 29.71 in 3.1 mi Calm Calm - N/A   Haze
9:30 PM 78.8 °F - 73.4 °F 83% 29.71 in 3.1 mi Calm Calm - N/A   Haze
10:30 PM 78.8 °F - 75.2 °F 89% 29.71 in 3.1 mi Calm Calm - N/A   Haze
11:00 PM 75.2 °F - 73.4 °F 94% 29.71 in 3.1 mi Calm Calm - N/A   Haze